Location: Napier
(39.4830°S, 176.9170°E)
Time: 02:47:12
(UTC+12:00)

CZ-2C R/B - Pass Details

Date: 15 August 2020
Orbit: 639 x 705 km, 98.4° (Epoch: 19 September)

Event Time Altitude Azimuth Distance (km) Brightness Sun altitude
Exits shadow 19:53:44 61° 294° (WNW) 740 4.0 -27.4°
Maximum altitude 19:53:54 62° 281° (WNW) 737 4.0 -27.4°
Drops below altitude 10° 19:58:23 10° 200° (SSW) 2,080 6.5 -28.3°
Sets 20:00:40 0° 196° (SSW) 3,006 7.3 -28.7°
